CW4591 Weather Reports


Display with metric or nautical units.
time (UTC)temp
F
wind
direction
speed
MPH
gust
MPH
rain 1hr
in
rain 24hr
in
rain mn
in
humidity
%
barometer
mb
20260904013051 52 102 1.0 7.0 0.00 0.00 0.00 60 1016.1
20260904011542 52 114 2.0 6.0 0.00 0.00 0.00 58 1016.7
20260904010044 53 74 2.0 7.0 0.00 0.00 0.00 58 1016.9
20260904004540 53 129 1.0 11.0 0.00 0.00 0.00 57 1017.1
20260904003039 53 62 3.0 9.0 0.00 0.00 0.00 56 1016.8
20260904001539 53 120 1.0 8.0 0.00 0.00 0.00 56 1017.0
20260904000113 52 80 2.0 7.0 0.00 0.00 0.00 58 1017.3
20260903234530 51 83 0.0 8.0 0.00 0.00 0.00 59 1017.7
20260903233029 51 104 4.0 9.0 0.00 0.00 0.00 57 1017.9
20260903231528 51 62 2.0 5.0 0.00 0.00 0.00 58 1018.1
20260903230027 50 121 3.0 8.0 0.00 0.00 0.00 58 1018.3
20260903224537 51 137 2.0 8.0 0.00 0.00 0.00 56 1018.5
20260903223023 51 68 3.0 7.0 0.00 0.00 0.00 56 1018.7
20260903221521 50 114 2.0 9.0 0.00 0.00 0.00 57 1018.6
20260903220020 50 83 2.0 8.0 0.00 0.00 0.00 58 1018.9
20260903214525 50 119 2.0 8.0 0.00 0.00 0.00 58 1018.8
20260903213029 49 114 2.0 8.0 0.00 0.00 0.00 55 1019.1
20260903211514 50 153 1.0 8.0 0.00 0.00 0.00 54 1019.4
20260903210013 49 122 3.0 8.0 0.00 0.00 0.00 55 1019.4
20260903204511 48 88 3.0 11.0 0.00 0.00 0.00 57 1019.5
20260903203009 48 116 1.0 12.0 0.00 0.00 0.00 58 1019.6
20260903201509 47 111 2.0 7.0 0.00 0.00 0.00 58 1019.7
20260903200005 47 150 3.0 11.0 0.00 0.00 0.00 60 1019.9
20260903194503 46 116 2.0 10.0 0.00 0.00 0.00 63 1020.1
20260903193059 45 43 2.0 7.0 0.00 0.00 0.00 63 1020.2
20260903191557 44 106 1.0 7.0 0.00 0.00 0.00 67 1020.3
20260903184549 42 135 4.0 10.0 0.00 0.00 0.00 74 1020.3
20260903183045 40 83 1.0 8.0 0.00 0.00 0.00 77 1020.4
20260903181547 39 112 1.0 5.0 0.00 0.00 0.00 81 1020.8
20260903180042 38 100 2.0 8.0 0.00 0.00 0.00 83 1020.7
20260903174537 36 125 1.0 5.0 0.00 0.00 0.00 85 1020.7
20260903173040 35 104 0.0 5.0 0.00 0.00 0.00 87 1020.7
20260903171540 34 128 2.0 5.0 0.00 0.00 0.00 89 1020.9
20260903170047 33 118 1.0 5.0 0.00 0.00 0.00 90 1021.0
20260903164537 32 89 1.0 7.0 0.00 0.00 0.00 92 1020.9
20260903163037 30 94 1.0 5.0 0.00 0.00 0.00 92 1020.9
20260903161532 29 103 0.0 5.0 0.00 0.00 0.00 93 1020.8
20260903160032 28 73 1.0 3.0 0.00 0.00 0.00 93 1020.8
20260903154532 28 73 1.0 3.0 0.00 0.00 0.00 93 1020.9
20260903153030 27 331 0.0 1.0 0.00 0.00 0.00 93 1020.9
20260903151531 27 359 0.0 0.0 0.00 0.00 0.00 93 1020.9
20260903150038 26 331 0.0 0.0 0.00 0.00 0.00 93 1020.8
20260903144528 26 359 0.0 0.0 0.00 0.00 0.00 92 1020.7
20260903143030 26 359 0.0 0.0 0.00 0.00 0.00 92 1020.8
20260903141526 26 331 0.0 0.0 0.00 0.00 0.00 92 1020.8
20260903140026 26 330 0.0 0.0 0.00 0.00 0.00 92 1020.7
20260903134524 26 330 0.0 0.0 0.00 0.00 0.00 92 1020.8
20260903133026 26 331 0.0 0.0 0.00 0.00 0.00 92 1020.8
20260903131522 26 359 0.0 0.0 0.00 0.00 0.00 92 1020.6
20260903130020 26 330 0.0 0.0 0.00 0.00 0.00 91 1020.6
20260903124523 26 330 0.0 0.0 0.00 0.00 0.00 90 1020.5
20260903123026 27 331 0.0 0.0 0.00 0.00 0.00 89 1020.4
20260903121513 28 331 0.0 0.0 0.00 0.00 0.00 88 1020.3
20260903120010 29 330 0.0 0.0 0.00 0.00 0.00 87 1020.4
20260903114507 30 359 0.0 0.0 0.00 0.00 0.00 87 1020.4
20260903113004 31 359 0.0 0.0 0.00 0.00 0.00 87 1020.2
20260903111617 32 359 0.0 0.0 0.00 0.00 0.00 86 1020.1
20260903110058 33 331 0.0 0.0 0.00 0.00 0.00 86 1020.1
20260903104605 33 330 0.0 0.0 0.00 0.00 0.00 86 1020.0
20260903103103 34 330 0.0 0.0 0.00 0.00 0.00 86 1019.9
20260903101554 34 330 0.0 0.0 0.00 0.00 0.00 84 1019.9
20260903100049 35 330 0.0 0.0 0.00 0.00 0.00 84 1019.7
20260903094556 35 330 0.0 0.0 0.00 0.00 0.00 83 1019.7
20260903093117 35 330 0.0 0.0 0.00 0.00 0.00 83 1019.5
20260903091550 36 330 0.0 0.0 0.00 0.00 0.00 83 1019.3
20260903090043 36 330 0.0 0.0 0.00 0.00 0.00 82 1019.3
20260903084539 36 330 0.0 0.0 0.00 0.00 0.00 81 1019.2
20260903083037 36 330 0.0 0.0 0.00 0.00 0.00 80 1019.1
20260903081539 37 330 0.0 0.0 0.00 0.00 0.00 79 1019.2
20260903080034 37 330 0.0 0.0 0.00 0.00 0.00 79 1019.1
20260903074533 37 330 0.0 0.0 0.00 0.00 0.00 79 1019.1
20260903073031 38 330 0.0 0.0 0.00 0.00 0.00 79 1018.9
20260903071529 38 330 0.0 0.0 0.00 0.00 0.00 78 1018.8
20260903070050 38 359 0.0 0.0 0.00 0.00 0.00 77 1018.4
20260903064527 39 330 0.0 1.0 0.00 0.00 0.00 75 1018.4
20260903063024 39 359 0.0 0.0 0.00 0.00 0.00 74 1018.2
20260903061525 40 330 1.0 4.0 0.00 0.00 0.00 72 1018.1
20260903060021 40 359 3.0 5.0 0.00 0.00 0.00 70 1017.9
20260903054533 40 330 2.0 5.0 0.00 0.00 0.00 70 1017.7
20260903053019 41 316 0.0 3.0 0.00 0.00 0.00 71 1017.5
20260903051518 41 335 1.0 4.0 0.00 0.00 0.00 71 1017.4
20260903050016 41 318 2.0 4.0 0.00 0.00 0.00 70 1017.3
20260903044514 41 305 2.0 6.0 0.00 0.00 0.00 69 1017.1
20260903043020 42 354 3.0 7.0 0.00 0.00 0.00 68 1016.9
20260903041519 42 310 2.0 7.0 0.00 0.00 0.00 66 1016.7
20260903040010 43 359 4.0 9.0 0.00 0.00 0.00 66 1016.7
20260903034514 43 317 4.0 10.0 0.00 0.00 0.00 65 1016.4
20260903033007 43 337 4.0 11.0 0.00 0.00 0.00 63 1016.3
20260903031505 43 293 6.0 12.0 0.00 0.00 0.00 64 1016.0
20260903030005 43 333 5.0 9.0 0.00 0.00 0.00 63 1016.0
20260903024504 44 359 4.0 15.0 0.00 0.00 0.00 60 1016.0
20260903023006 44 359 4.0 14.0 0.00 0.00 0.00 59 1015.7
20260903021504 45 286 5.0 11.0 0.00 0.00 0.00 60 1015.5
20260903014624 45 341 5.0 10.0 0.00 0.00 0.00 60 1015.3